Location: Fazenda Monte Alegre
(4.8500°S, 38.0333°W)
Time: 16:56:54
(UTC+00:00)

Ariane 44P Rocket - Pass Details

Date: 24 September 2020
Orbit: 283 x 24597 km, 4.1° (Epoch: 24 October)

Event Time Altitude Azimuth Distance (km) Brightness Sun altitude
Rises 21:16:47 0° 279° (W) 4,673 8.9 -13.1°
Reaches altitude 10° 21:21:32 10° 284° (WNW) 2,281 6.7 -14.3°
Maximum altitude 21:25:28 43° 358° (N) 537 2.2 -15.3°
Enters shadow 21:26:06 33° 42° (NE) 589 2.1 -15.4°
